Weather History for Elko, NV

Change the Weather History Date:

Wednesday, February 15, 2012

  Actual Average Record
Temperature  
Mean Temperature 26 °F 30 °F  
Max Temperature 37 °F 41 °F 63 °F (2014)
Min Temperature 14 °F 18 °F -20 °F (1895)
Degree Days  
Heating Degree Days 39 35  
Month to date heating degree days 497 556  
Since 1 July heating degree days 4334 4741  
Cooling Degree Days 0 0  
Month to date cooling degree days 0 0  
Year to date cooling degree days 0 0  
Moisture  
Dew Point 23 °F    
Average Humidity 73    
Maximum Humidity 92    
Minimum Humidity 54    
Precipitation  
Precipitation 0.31 in 0.03 in 0.32 in (1982)
Month to date precipitation 0.31 0.44  
Year to date precipitation 1.27 1.56  
Snow  
Snow 4.50 in 0.20 in 4.50 in (2012)
Month to date snowfall 4.6 3.8  
Since 1 July snowfall 13.5 29.9  
Snow Depth 2.00 in    
Sea Level Pressure  
Sea Level Pressure 29.92 in    
Wind  
Wind Speed 8 mph (NNE)    
Max Wind Speed 21 mph    
Max Gust Speed 25 mph    
Visibility 5 miles    
Events Fog , Snow    
T = Trace of Precipitation, MM = Missing Value Source: NWS Daily Summary

Daily Weather History Graph

Daily Weather History Graph

Search for Another Location

Airport:

Trip Planner

Search our weather history database for the weather conditions in past years. The results will help you decide how hot, cold, wet, or windy it might be!

Date:

Astronomy

Feb. 15, 2012 Rise Set
Actual Time 6:37 AM PST 5:17 PM PST
Civil Twilight 6:09 AM PST 5:45 PM PST
Nautical Twilight 5:37 AM PST 6:17 PM PST
Astronomical Twilight 5:05 AM PST 6:49 PM PST
Moon 1:36 AM PST (2/15) 11:15 AM PST (2/15)
Length of Visible Light 11h 35m
Length of Day
10h 39m
Last Quarter, 38% of the Moon is Illuminated
Feb 15
Last Quarter
Feb 21
New
Feb 29
First Quarter
Mar 8
Full
Mar 14
Last Quarter

Hourly Weather History & Observations

Time (PST) Temp. Windchill Dew Point Humidity Pressure Visibility Wind Dir Wind Speed Gust Speed Precip Events Conditions
12:56 AM 33.8 °F 26.4 °F 24.8 °F 70% 29.75 in 10.0 mi SSW 9.2 mph - N/A   Overcast
1:34 AM 32.0 °F 25.6 °F 26.6 °F 80% 29.76 in 3.0 mi SW 6.9 mph - 0.00 in Snow Light Snow
1:56 AM 30.9 °F 26.2 °F 27.0 °F 85% 29.76 in 4.0 mi WSW 4.6 mph - 0.00 in Snow Light Snow
2:11 AM 30.2 °F 25.4 °F 26.6 °F 86% 29.76 in 2.5 mi WSW 4.6 mph - 0.00 in Snow Light Snow
2:20 AM 30.2 °F 25.4 °F 28.4 °F 93% 29.76 in 1.0 mi WSW 4.6 mph - 0.00 in Snow Light Snow
2:28 AM 30.2 °F 26.7 °F 28.4 °F 93% 29.76 in 0.8 mi WSW 3.5 mph - 0.01 in Snow Light Snow
2:46 AM 30.2 °F - 28.4 °F 93% 29.75 in 1.0 mi Calm Calm - 0.02 in Snow Light Snow
2:56 AM 30.0 °F - 28.9 °F 96% 29.78 in 1.0 mi Calm Calm - 0.03 in Snow Light Snow
3:07 AM 30.2 °F 26.7 °F 28.4 °F 93% 29.76 in 0.8 mi Variable 3.5 mph - 0.01 in Snow Light Snow
3:19 AM 30.2 °F - 26.6 °F 86% 29.76 in 1.0 mi Calm Calm - 0.02 in Snow Light Snow
3:33 AM 30.2 °F 21.9 °F 26.6 °F 86% 29.76 in 1.8 mi SSE 9.2 mph - 0.02 in Snow Light Snow
3:42 AM 30.2 °F 22.6 °F 26.6 °F 86% 29.76 in 2.0 mi SE 8.1 mph 16.1 mph 0.02 in Snow Light Snow
3:53 AM 30.2 °F 25.4 °F 26.6 °F 86% 29.77 in 4.0 mi ESE 4.6 mph - 0.03 in Snow Light Snow
3:56 AM 30.2 °F 25.4 °F 26.6 °F 86% 29.77 in 5.0 mi ESE 4.6 mph - N/A Snow Light Snow
4:35 AM 30.2 °F 21.9 °F 26.6 °F 86% 29.79 in 2.5 mi North 9.2 mph 16.1 mph N/A Snow Light Snow
4:39 AM 30.2 °F 18.5 °F 26.6 °F 86% 29.79 in 1.2 mi NNW 17.3 mph 23.0 mph 0.00 in Snow Light Snow
4:47 AM 28.4 °F 18.0 °F 24.8 °F 86% 29.80 in 0.5 mi North 12.7 mph - 0.01 in Fog , Snow Snow
4:54 AM 26.6 °F 16.8 °F 24.8 °F 93% 29.79 in 0.5 mi NNE 10.4 mph - 0.04 in Fog , Snow Snow
4:56 AM 27.0 °F 16.1 °F 24.1 °F 89% 29.83 in 0.5 mi North 12.7 mph 19.6 mph 0.05 in Fog , Snow Snow
5:30 AM 26.6 °F 14.7 °F 23.0 °F 86% 29.81 in 1.0 mi North 15.0 mph - 0.02 in Snow Light Snow
5:42 AM 26.6 °F 16.2 °F 21.2 °F 80% 29.82 in 2.0 mi North 11.5 mph 20.7 mph 0.03 in Snow Light Snow
5:56 AM 27.0 °F 20.5 °F 23.0 °F 85% 29.87 in 2.0 mi ENE 5.8 mph - 0.03 in Snow Light Snow
6:12 AM 26.6 °F 21.2 °F 24.8 °F 93% 29.83 in 1.8 mi Variable 4.6 mph - 0.00 in Snow Light Snow
6:53 AM 26.6 °F 21.2 °F 24.8 °F 93% 29.85 in 0.8 mi NNE 4.6 mph - 0.02 in Snow Light Snow
6:56 AM 27.0 °F 20.5 °F 25.0 °F 92% 29.90 in 1.0 mi NNE 5.8 mph - 0.02 in Snow Light Snow
7:24 AM 28.4 °F 23.3 °F 24.8 °F 86% 29.87 in 1.2 mi NE 4.6 mph - 0.00 in Snow Light Snow
7:33 AM 28.4 °F - 26.6 °F 93% 29.87 in 1.2 mi Calm Calm - 0.00 in Snow Light Snow
7:47 AM 28.4 °F 23.3 °F 24.8 °F 86% 29.88 in 1.2 mi NE 4.6 mph - 0.01 in Snow Light Snow
7:56 AM 28.0 °F 21.7 °F 25.0 °F 88% 29.94 in 1.2 mi NE 5.8 mph - 0.01 in Snow Light Snow
8:13 AM 28.4 °F 24.6 °F 26.6 °F 93% 29.89 in 2.5 mi NNW 3.5 mph - 0.00 in Snow Light Snow
8:22 AM 28.4 °F - 26.6 °F 93% 29.90 in 3.0 mi Calm Calm - 0.00 in Snow Light Snow
8:36 AM 30.2 °F 25.4 °F 24.8 °F 80% 29.90 in 2.5 mi Variable 4.6 mph - 0.00 in Snow Light Snow
8:56 AM 30.0 °F 20.5 °F 23.0 °F 75% 29.96 in 4.0 mi North 11.5 mph - 0.00 in Snow Light Snow
9:43 AM 32.0 °F 22.5 °F 23.0 °F 69% 29.93 in 10.0 mi North 12.7 mph - 0.00 in   Mostly Cloudy
9:56 AM 32.0 °F 22.1 °F 23.0 °F 69% 29.98 in 10.0 mi North 13.8 mph - 0.00 in   Mostly Cloudy
10:56 AM 33.1 °F 21.9 °F 23.0 °F 66% 30.00 in 10.0 mi North 18.4 mph - N/A   Partly Cloudy
11:56 AM 35.1 °F 25.5 °F 21.9 °F 59% 30.00 in 10.0 mi NE 15.0 mph 20.7 mph N/A   Overcast
12:56 PM 35.1 °F 24.5 °F 21.9 °F 59% 30.00 in 10.0 mi NNE 18.4 mph - N/A   Mostly Cloudy
1:56 PM 37.4 °F 29.3 °F 23.0 °F 56% 29.98 in 10.0 mi NNE 12.7 mph 20.7 mph N/A   Clear
2:56 PM 35.1 °F 25.9 °F 21.9 °F 59% 30.06 in 10.0 mi North 13.8 mph 23.0 mph N/A   Clear
3:56 PM 34.0 °F 25.5 °F 21.0 °F 59% 30.09 in 10.0 mi NNE 11.5 mph 19.6 mph N/A   Clear
4:56 PM 30.9 °F 21.7 °F 19.9 °F 64% 30.15 in 10.0 mi NNE 11.5 mph - N/A   Partly Cloudy
5:56 PM 27.0 °F 20.5 °F 17.1 °F 66% 30.19 in 10.0 mi ENE 5.8 mph - N/A   Clear
6:56 PM 27.0 °F 21.6 °F 17.1 °F 66% 30.21 in 10.0 mi NE 4.6 mph - N/A   Clear
7:56 PM 21.9 °F - 16.0 °F 78% 30.25 in 10.0 mi Calm Calm - N/A   Clear
8:56 PM 23.0 °F 17.0 °F 15.1 °F 72% 30.25 in 10.0 mi NNE 4.6 mph - N/A   Clear
9:56 PM 16.0 °F 8.8 °F 10.9 °F 81% 30.28 in 10.0 mi WSW 4.6 mph - N/A   Clear
10:56 PM 16.0 °F 10.4 °F 12.0 °F 84% 30.30 in 10.0 mi West 3.5 mph - N/A   Clear
11:56 PM 16.0 °F - 12.0 °F 84% 30.34 in 10.0 mi Calm Calm - N/A   Clear